Flag for United Kingdom Weather past 2 weeks in Sunderland, England, United Kingdom

37 °F


Feels Like: 29 °F
Forecast: 40 / 47 °F
Wind: 14 mph from West

Location: Newcastle

Current Time: Nov 28, 2015 at 4:36:42 AM

Latest Report: Nov 28, 2015 at 4:20 AM

Visibility: 10 mi

Pressure: 29.65 "Hg

Humidity: 81%

Dew point: 32 °F

Location of SunderlandLocation

Historic Weather in Sunderland — Graph


Sunderland temperature yesterday

Maximum temperature yesterday: 54 °F (at 12:20 AM)
Minimum temperature yesterday: 37 °F (at 9:50 PM)
Average temperature yesterday: 47 °F

Past Weeks' High & Low Weather Summary

High61 °F (Nov 15, 12:20 PM)100% (Nov 14, 10:50 PM)30.18 "Hg (Nov 14, 10:50 PM)
Low30 °F (Nov 21, 5:20 PM)60% (Nov 21, 12:20 PM)29.06 "Hg (Nov 17, 4:50 PM)
Average44 °F82%29.70 "Hg
* Reported Nov 13 3:20 AM — Nov 28 3:20 AM, Sunderland, Weather by CustomWeather, © 2015

Note: Actual official high and low records may vary slightly from our data, if they occured in-between our weather recording intervals... More about our weather records


Sunderland weather history for previous 24 hours

Time TempWeatherWind HumidityBarometerVisibility
3:20 AM
Sat, Nov 28
37 °FClear.17 mph81%29.65 "Hg10 mi
2:50 AM37 °FClear.22 mph81%29.65 "Hg10 mi
2:20 AM37 °FClear.20 mph81%29.65 "Hg10 mi
1:50 AM37 °FPassing clouds.16 mph81%29.65 "HgN/A
1:20 AM37 °FClear.17 mph81%29.65 "Hg10 mi
12:20 AM37 °FClear.21 mph81%29.65 "Hg10 mi
11:50 PM
Fri, Nov 27
37 °FClear.17 mph81%29.62 "Hg10 mi
11:20 PM37 °FPassing clouds.23 mph81%29.62 "HgN/A
10:50 PM37 °FClear.18 mph87%29.62 "Hg10 mi
10:20 PM37 °FClear.15 mph87%29.59 "Hg10 mi
9:50 PM37 °FClear.17 mph87%29.59 "Hg10 mi
9:20 PM39 °FClear.20 mph81%29.59 "Hg10 mi
8:50 PM39 °FClear.17 mph81%29.59 "Hg10 mi
8:20 PM39 °FClear.16 mph81%29.59 "Hg10 mi
7:50 PM39 °FPassing clouds.16 mph81%29.56 "HgN/A
7:20 PM39 °FPassing clouds.12 mph87%29.56 "HgN/A
6:50 PM39 °FPassing clouds.8 mph87%29.56 "HgN/A
6:20 PM39 °FLight rain. Passing clouds.7 mph87%29.53 "HgN/A
5:20 PM39 °FLight rain. Passing clouds.15 mph93%29.50 "HgN/A
4:50 PM43 °FLight rain. Passing clouds.13 mph87%29.47 "HgN/A
4:20 PM43 °FScattered showers. Passing clouds.9 mph93%29.47 "HgN/A
3:50 PM45 °FLight rain. Partly cloudy.10 mph81%29.45 "HgN/A
3:20 PM46 °FLight rain. Partly sunny.23 mph76%29.42 "Hg3 mi
2:50 PM54 °FPartly sunny.13 mph77%29.39 "HgN/A
2:20 PM54 °FPartly sunny.15 mph77%29.42 "HgN/A
1:50 PM54 °FPartly sunny.17 mph77%29.42 "HgN/A
1:20 PM54 °FScattered clouds.15 mph72%29.45 "HgN/A
12:50 PM52 °FScattered clouds.17 mph77%29.45 "HgN/A
12:20 PM52 °FPartly sunny.16 mph77%29.47 "HgN/A
11:50 AM52 °FPartly sunny.7 mph77%29.50 "HgN/A
11:20 AM52 °FPartly sunny.12 mph77%29.53 "HgN/A
10:50 AM52 °FPartly sunny.16 mph77%29.53 "HgN/A
10:20 AM52 °FScattered clouds.16 mph77%29.56 "HgN/A
9:50 AM54 °FPassing clouds.14 mph77%29.56 "HgN/A
9:20 AM52 °FPassing clouds.12 mph82%29.56 "HgN/A
8:50 AM52 °FScattered clouds.10 mph82%29.59 "HgN/A
8:20 AM52 °FPassing clouds.8 mph82%29.59 "HgN/A
7:50 AM52 °FPassing clouds.7 mph77%29.62 "HgN/A
7:20 AM54 °FPassing clouds.9 mph77%29.62 "HgN/A
6:50 AM54 °FPassing clouds.14 mph77%29.65 "HgN/A
6:20 AM54 °FPassing clouds.15 mph77%29.65 "HgN/A
5:50 AM52 °FPassing clouds.13 mph82%29.65 "HgN/A
5:20 AM52 °FPassing clouds.6 mph82%29.68 "HgN/A
Weather by CustomWeather, © 2015

See weather overviewHow to use our weather pages